星链-32676 (STARLINK-32676)

导读 | 豆包AI

STARLINK-32676是美国SpaceX公司于2024年12月23日发射的第二代星链(Starlink)低轨通信卫星,属于星链星座全球组网的部署卫星之一。该卫星运行在340-614公里近地轨道,配备增强型相控阵天线与激光星间链路,依托氪离子霍尔推进器实现轨道机动与自主避碰,设计寿命5-7年,退役后会主动离轨再入大气层销毁,主要用于为全球提供高速低延迟宽带互联网接入服务。

基本信息
目录编号:
62426
目录名称:
STARLINK-32676
国际标识:
2024-249T
轨道中心:
EARTH
卫星名称:
星链-32676
卫星全名:
星链-32676 (STARLINK-32676)
卫星状态:
在轨 (已飞行447 天)
发射日期:
2024-12-23 UTC
国别 :
美国 (US)
星等 :
--
轨道信息
数据来源 国际轨道数据
星历时间: 2026-03-14T23:08:25+0800
12小时前
查看轨道信息
半长轴: 6861.129km
偏心率: 0.0001584
轨道倾角: 43.000°
近地点辐角 265.976°
升交点赤经 286.659°
平近点角 94.091°
近地点: 481.905km
远地点: 484.079km
周期: 94.266分钟
每日圈数: 15.275993
详细信息
固有亮度:
5
最大亮度:
2.5
卫星平台:
Starlink V1.0
覆盖范围:
全球
运营商:
太空探索技术公司
运营商所在国:
美国
制造商(研发单位):
太空探索技术公司
制造商所在国:
美国
使用方式:
暂无
卫星简介
Starlink 计划是 SpaceX 推出的全球卫星互联网项目,通过发射低轨道卫星,为全球尤其是偏远地区提供高速、低延迟的互联网服务。自 2019 年起,Starlink 已部署数千颗卫星,旨在缩小全球数字鸿沟,推动互联网普及。该项目还为军事、航空等行业提供通信支持,带来广泛经济效益。
2D轨道图
3D轨道图
轨道高度分析图
轨道倾角分析图
轨道综合分析图
查看轨道综合分析图